This is the latest recevied weather packets stored in our database for station/object K1RTA-1. If no packets are shown the sender has not sent any weather packets the latest 10 day(s).
| Time | Temp. | Humidity | Pressure | Rain* | Wind** | Luminosity | Snow |
|---|---|---|---|---|---|---|---|
| 1777225102 | 13.33° C | 51% | 1022 hPa | 0 mm | - | - | - |
| 1777224201 | 13.33° C | 64% | 1022 hPa | 0 mm | - | - | - |
| 1777223302 | 12.78° C | 61% | 1022.1 hPa | 0 mm | - | - | - |
| 1777222403 | 12.78° C | 51% | 1022.1 hPa | 0 mm | - | - | - |
| 1777221502 | 12.78° C | 51% | 1022 hPa | 0 mm | - | - | - |
| 1777220603 | 12.22° C | 51% | 1022 hPa | 0 mm | - | - | - |
| 1777219702 | 12.22° C | 50% | 1022.1 hPa | 0 mm | - | - | - |
| 1777218803 | 11.67° C | 54% | 1022 hPa | 0 mm | - | - | - |
| 1777217901 | 11.67° C | 53% | 1022.1 hPa | 0 mm | - | - | - |
| 1777217002 | 11.67° C | 56% | 1022.1 hPa | 0 mm | - | - | - |
| 1777216103 | 11.11° C | 56% | 1022 hPa | 0 mm | - | - | - |
| 1777215201 | 11.11° C | 54% | 1021.9 hPa | 0 mm | - | - | - |
| 1777214301 | 11.11° C | 56% | 1021.9 hPa | 0 mm | - | - | - |
| 1777213403 | 11.11° C | 59% | 1021.9 hPa | 0 mm | - | - | - |
| 1777212502 | 10.56° C | 58% | 1021.7 hPa | 0 mm | - | - | - |
| 1777211602 | 10° C | 65% | 1021.6 hPa | 0 mm | - | - | - |
| 1777210702 | 9.44° C | 67% | 1021.7 hPa | 0 mm | - | - | - |
| 1777209802 | 8.89° C | 71% | 1021.7 hPa | 0 mm | - | - | - |
| 1777208903 | 8.33° C | 71% | 1021.5 hPa | 0 mm | - | - | - |
| 1777208002 | 8.33° C | 71% | 1021.4 hPa | 0 mm | - | - | - |
| 1777207102 | 8.33° C | 71% | 1021.2 hPa | 0 mm | - | - | - |
| 1777206202 | 7.78° C | 74% | 1021.2 hPa | 0 mm | - | - | - |
| 1777205303 | 7.78° C | 76% | 1021.2 hPa | 0 mm | - | - | - |
| 1777204402 | 7.22° C | 78% | 1021.1 hPa | 0 mm | - | - | - |
| 1777203502 | 6.67° C | 81% | 1021.1 hPa | 0 mm | - | - | - |
* Rain latest hour (hover to see other rain measurements)
** Current wind speed in m/s (hover to see current wind gust speed)